GW3775 Weather Reports


time (UTC)temp
F
wind
direction
speed
knots
gust
knots
rain 1hr
in
rain 24hr
in
rain mn
in
humidity
%
barometer
mb
20260504050549 56 109 0.0 0.9 0.00 0.07 0.00 96 1015.0
20260504045549 56 0 0.0 0.9 0.00 0.07 0.00 96 1014.9
20260504045401 56 109 0.0 0.9 0.00 0.07 0.00 96 1014.9
20260504044557 56 0 0.0 0.0 0.00 0.07 0.00 96 1014.9
20260504044049 56 0 0.0 0.9 0.00 0.07 0.00 96 1014.8
20260504043809 56 0 0.0 0.9 0.00 0.07 0.00 96 1014.8
20260504040549 56 0 0.0 0.9 0.00 0.07 0.00 96 1015.1
20260504040054 56 0 0.0 0.9 0.00 0.07 0.00 96 1015.3
20260504035549 56 109 0.0 1.7 0.00 0.07 0.00 96 1015.2
20260504035049 56 0 0.0 1.7 0.00 0.07 0.00 96 1015.1
20260504034556 56 58 0.0 1.7 0.00 0.07 0.00 96 1015.2
20260504034052 56 0 0.0 1.7 0.00 0.07 0.00 96 1015.3
20260504033549 56 0 0.0 3.5 0.00 0.07 0.00 96 1015.4
20260504033049 56 26 1.7 3.5 0.00 0.07 0.00 95 1015.3
20260504032549 56 34 1.7 3.5 0.00 0.07 0.00 95 1015.4
20260504032049 56 344 1.7 3.5 0.00 0.07 0.00 95 1015.4
20260504031552 56 14 0.9 3.5 0.00 0.07 0.00 95 1015.4
20260504031048 56 0 0.0 1.7 0.00 0.07 0.00 95 1015.7
20260504030552 57 0 0.0 1.7 0.00 0.07 0.00 95 1015.6
20260504030051 57 0 0.0 3.5 0.00 0.07 0.00 95 1015.5
20260504025547 57 325 0.9 3.5 0.00 0.07 0.00 95 1015.7
20260504025048 57 289 1.7 2.6 0.00 0.07 0.00 95 1015.7
20260504024552 57 0 0.0 2.6 0.00 0.07 0.00 95 1015.8
20260504024050 57 280 0.9 2.6 0.00 0.07 0.00 95 1015.7
20260504023548 57 199 0.9 2.6 0.00 0.07 0.00 95 1015.7
20260504023049 57 214 0.9 2.6 0.00 0.07 0.00 95 1015.8
20260504022550 57 0 0.0 2.6 0.00 0.07 0.00 95 1015.7
20260504022049 57 0 0.0 2.6 0.00 0.07 0.00 95 1015.9
20260504021554 57 80 0.9 2.6 0.00 0.07 0.00 95 1015.8
20260504021052 57 98 0.9 1.7 0.00 0.07 0.00 95 1015.8
20260504020552 57 98 0.0 0.9 0.00 0.07 0.00 95 1015.9
20260504020058 57 0 0.0 0.9 0.00 0.07 0.00 95 1015.8
20260504015549 57 0 0.0 0.9 0.00 0.07 0.00 95 1016.0
20260504015048 57 0 0.0 0.9 0.00 0.07 0.00 95 1015.9
20260504014559 57 0 0.0 2.6 0.00 0.07 0.00 95 1015.9
20260504014049 57 0 0.0 2.6 0.00 0.07 0.00 95 1015.7
20260504013548 57 67 0.9 3.5 0.00 0.07 0.00 95 1015.8
20260504013108 57 83 1.7 3.5 0.00 0.07 0.00 95 1015.7
20260504012547 57 69 0.9 2.6 0.00 0.07 0.00 95 1015.9
20260504012049 57 104 0.0 1.7 0.00 0.07 0.00 95 1015.7
20260504011548 57 0 0.0 0.9 0.00 0.07 0.00 95 1015.8
20260504011048 57 0 0.0 0.9 0.00 0.07 0.00 95 1015.8
20260504010548 57 0 0.0 0.9 0.00 0.07 0.00 95 1015.8
20260504010050 57 0 0.0 0.9 0.00 0.07 0.00 95 1015.9
20260504005549 57 0 0.0 0.9 0.00 0.07 0.00 95 1015.8
20260504005053 57 0 0.0 0.9 0.00 0.07 0.00 95 1015.8
20260504004556 57 96 0.0 0.9 0.00 0.07 0.00 95 1015.9
20260504004049 57 96 0.0 1.7 0.00 0.07 0.00 95 1015.8
20260504003548 57 0 0.0 2.6 0.00 0.07 0.00 95 1015.9
20260504003058 57 45 0.9 2.6 0.00 0.07 0.00 95 1016.0
20260504002548 57 79 0.0 1.7 0.00 0.07 0.00 95 1016.0
20260504002051 57 0 0.0 0.9 0.00 0.07 0.00 95 1016.0
20260504001555 57 0 0.0 1.7 0.00 0.07 0.00 95 1016.2
20260504001050 57 0 0.0 1.7 0.00 0.07 0.00 95 1016.1
20260504000548 57 83 0.9 1.7 0.00 0.07 0.00 95 1015.9
20260504000107 57 84 0.0 0.9 0.00 0.07 0.00 95 1016.2
20260503235551 57 0 0.0 1.7 0.00 0.07 0.00 95 1016.1
20260503235049 58 0 0.0 1.7 0.00 0.07 0.00 95 1016.2
20260503234558 57 0 0.9 1.7 0.00 0.07 0.00 95 1016.2
20260503234048 57 0 0.0 0.9 0.00 0.07 0.00 95 1016.4
20260503233549 57 0 0.0 0.9 0.00 0.07 0.00 95 1016.3
20260503233052 57 0 0.0 0.0 0.00 0.07 0.00 95 1016.4
20260503232548 57 0 0.0 0.9 0.00 0.07 0.00 95 1016.4
20260503232048 57 0 0.0 0.9 0.00 0.07 0.00 95 1016.5
20260503231554 57 0 0.0 1.7 0.00 0.07 0.00 95 1016.6
20260503231049 57 84 0.0 1.7 0.00 0.07 0.00 95 1016.4
20260503230550 57 0 0.9 1.7 0.00 0.07 0.00 95 1016.5
20260503230052 57 84 0.0 1.7 0.00 0.07 0.00 95 1016.5
20260503225548 57 0 0.0 1.7 0.00 0.07 0.00 95 1016.5
20260503225048 57 84 0.0 1.7 0.00 0.07 0.00 95 1016.6
20260503224600 57 83 0.0 1.7 0.00 0.07 0.00 95 1016.6
20260503224048 57 0 0.0 2.6 0.00 0.07 0.00 95 1016.5
20260503223547 57 45 0.0 2.6 0.00 0.07 0.00 95 1016.6
20260503223054 57 43 1.7 2.6 0.00 0.07 0.00 95 1016.6
20260503222548 57 41 0.9 2.6 0.00 0.07 0.00 95 1016.5
20260503222051 57 36 1.7 2.6 0.00 0.07 0.00 95 1016.6
20260503221601 57 59 1.7 2.6 0.00 0.07 0.00 95 1016.7
20260503221053 57 90 0.0 1.7 0.00 0.07 0.00 95 1016.7
20260503220549 57 89 0.0 2.6 0.01 0.07 0.00 95 1016.6
20260503220052 57 0 0.0 2.6 0.01 0.07 0.00 95 1016.8
20260503215548 57 0 0.9 2.6 0.01 0.07 0.07 94 1016.8
20260503215048 57 256 0.0 2.6 0.01 0.07 0.07 94 1016.8
20260503214559 57 132 0.9 4.3 0.01 0.07 0.07 94 1016.7
20260503214051 57 9 0.9 4.3 0.01 0.07 0.07 94 1016.6
20260503213550 57 288 2.6 4.3 0.01 0.07 0.07 94 1016.7
20260503213102 57 331 0.0 2.6 0.02 0.07 0.07 94 1016.7
20260503212550 57 90 0.0 3.5 0.02 0.07 0.07 94 1016.7
20260503212050 57 60 0.9 4.3 0.02 0.07 0.07 94 1016.8
20260503211556 57 6 1.7 4.3 0.01 0.06 0.06 94 1016.7
20260503211053 57 64 0.9 2.6 0.02 0.06 0.06 94 1016.9
20260503210550 57 90 0.0 3.5 0.01 0.05 0.05 94 1016.7
20260503210050 57 0 0.9 3.5 0.01 0.05 0.05 94 1016.6
20260503205550 57 336 0.0 3.5 0.02 0.05 0.05 94 1016.7
20260503205051 57 92 0.9 3.5 0.02 0.05 0.05 94 1016.6
20260503204614 57 36 1.7 3.5 0.02 0.05 0.05 94 1016.5
20260503204050 57 31 1.7 3.5 0.03 0.05 0.05 94 1016.6
20260503203549 57 19 0.9 3.5 0.03 0.05 0.05 94 1016.5
20260503203054 58 17 0.9 1.7 0.02 0.04 0.04 94 1016.5
20260503202553 58 301 0.0 4.3 0.02 0.04 0.04 94 1016.6
20260503202050 57 301 2.6 5.2 0.03 0.04 0.04 94 1016.5
20260503201552 57 328 1.7 5.2 0.03 0.04 0.04 94 1016.4
20260503201049 57 286 1.7 3.5 0.02 0.03 0.03 93 1016.2
20260503200548 57 306 0.9 4.3 0.02 0.03 0.03 93 1016.3
20260503200053 57 311 1.7 4.3 0.02 0.03 0.03 93 1016.3
20260503195548 57 14 0.9 4.3 0.01 0.03 0.03 93 1016.0
20260503195048 57 296 0.9 5.2 0.01 0.03 0.03 93 1015.9
20260503194555 57 312 1.7 5.2 0.00 0.02 0.02 93 1015.8
20260503194048 57 330 1.7 6.1 0.00 0.02 0.02 92 1015.8
20260503193552 57 0 0.9 7.8 0.00 0.02 0.02 92 1015.8
20260503193059 58 297 2.6 7.8 0.00 0.02 0.02 92 1015.7
20260503192550 58 301 2.6 8.7 0.00 0.02 0.02 92 1015.7
20260503192050 58 312 4.3 8.7 0.00 0.01 0.01 91 1015.4
20260503191611 58 287 3.5 10.4 0.00 0.01 0.01 91 1015.5
20260503191048 59 57 1.7 10.4 0.00 0.01 0.01 91 1015.4
20260503190548 59 311 3.5 7.0 0.00 0.01 0.01 90 1015.5
20260503190055 59 292 1.7 6.1 0.00 0.01 0.01 90 1015.4
20260503185549 60 261 0.9 6.1 0.00 0.01 0.01 90 1015.2
20260503185048 60 68 2.6 5.2 0.00 0.01 0.01 90 1015.2
20260503184550 60 0 0.9 5.2 0.00 0.01 0.01 91 1015.1
20260503184051 60 22 2.6 5.2 0.00 0.01 0.01 90 1015.1
20260503183549 60 103 0.9 4.3 0.00 0.01 0.01 90 1015.1
20260503183052 60 109 0.9 6.1 0.00 0.01 0.01 90 1015.0
20260503182551 60 264 1.7 8.7 0.00 0.01 0.01 90 1015.0
20260503182050 60 7 1.7 8.7 0.00 0.01 0.01 89 1014.9
20260503181556 60 332 3.5 7.0 0.00 0.01 0.01 89 1014.9
20260503181048 60 24 2.6 7.8 0.00 0.01 0.01 88 1014.8
20260503180551 60 301 3.5 7.8 0.00 0.01 0.01 88 1014.8
20260503180249 60 328 4.3 7.0 0.00 0.01 0.01 88 1014.8
20260503174556 60 309 4.3 8.7 0.00 0.01 0.01 89 1014.9
20260503174048 60 311 4.3 8.7 0.00 0.01 0.01 89 1015.0
20260503173548 60 299 4.3 8.7 0.00 0.01 0.01 89 1014.9
20260503173100 60 296 2.6 7.0 0.00 0.01 0.01 89 1014.8
20260503172831 60 334 0.9 11.3 0.00 0.01 0.01 90 1015.0
20260503171048 60 303 4.3 9.6 0.00 0.01 0.01 88 1014.7
20260503170552 60 12 5.2 8.7 0.00 0.01 0.01 88 1015.1
20260503170105 61 339 3.5 7.8 0.00 0.01 0.01 88 1015.1
20260503160109 64 7 5.2 8.7 0.00 0.00 0.00 81 1014.6
20260503150549 68 61 3.5 6.1 0.00 0.00 0.00 69 1015.1
20260503131050 67 126 0.9 5.2 0.00 0.00 0.00 73 1016.4
20260503130551 66 148 1.7 5.2 0.00 0.00 0.00 73 1016.4
20260503110550 62 69 4.3 9.6 0.00 0.00 0.00 82 1017.4
20260503081048 58 124 0.9 5.2 0.00 0.00 0.00 93 1017.9
20260503080551 57 51 0.9 5.2 0.00 0.00 0.00 94 1017.9
20260503072548 56 358 2.6 4.3 0.00 0.00 0.00 94 1017.9
20260503072048 56 64 0.0 2.6 0.00 0.00 0.00 94 1018.0
20260503071612 56 119 0.9 3.5 0.00 0.00 0.00 94 1018.1
20260503071048 56 17 1.7 3.5 0.00 0.00 0.00 93 1018.0
20260503070548 56 10 0.9 3.5 0.00 0.00 0.00 93 1018.0
20260503055048 56 0 0.0 0.9 0.00 0.00 0.00 93 1017.6
20260503054613 56 0 0.0 0.9 0.00 0.00 0.00 93 1017.7
20260503054052 56 0 0.0 0.9 0.00 0.00 0.00 93 1017.6
20260503053549 56 0 0.0 0.9 0.00 0.00 0.00 93 1017.5
20260503053102 56 0 0.0 1.7 0.00 0.00 0.00 93 1017.4
20260503052548 56 67 0.0 1.7 0.00 0.00 0.00 93 1017.5
20260503052051 56 67 0.0 1.7 0.00 0.00 0.00 93 1017.5